Погода в Массе

Италия     44°02′06″N   10°08′22″E
темп.,
°C
ветер,
м/с
пор.,
м/с
влажн.,
%
обл.,
%
осадки,
мм/ч
давл.,
гПа
погр.,
м
14 мая, пт
пт1423:00+11ю249599 0.4 1008273
02:00+11юз3595100 1.1 1009439
05:00+11вюв239674 0.8 1008206
08:00+11ююз2396100 2.1 1009297
11:00+11ююз3693100 2.1 1010622
14:00+12юз2389100 3.3 1011399
17:00+12юз1183100 0.9 1009441
20:00+10св2291100 1.6 100972
15 мая, сб
сб1523:00+9всв118991 0.0 101157
02:00+9ссв119186 0.0 101140
05:00+10ссз1192100 0.1 101167
08:00+11зюз128985 0.1 1012256
11:00+14юз226475 0.1 1012914
14:00+14юз3366100 0.2 1012966
17:00+14юз356536 0.1 10121248
20:00+11зюз2595100 0.9 1012423
16 мая, вс
вс1623:00+12юз4897100 3.3 1011873
02:00+13юз4798100 5.1 1010818
05:00+13юз4798100 2.0 1009702
08:00+13юз3598100 3.4 1010587
11:00+13юз3697100 1.5 1010682
14:00+14зюз3694100 3.1 1011798
17:00+14юз3491100 1.1 1010650
20:00+13ю239646 1.2 1009149
17 мая, пн
пн1723:00+12юз119596 0.2 101040
02:00+12ю239635 0.5 1010181
05:00+12ююз359599 0.2 1009394
08:00+12ююз369399 0.3 1010627
11:00+12ююз4589100 0.2 1011650
14:00+14ююз456988 0.3 10111089
17:00+15юз356715 0.0 1011973
20:00+12ююз248531 0.1 1012225
18 мая, вт
вт1823:00+12ююв13916 0.1 101189
02:00+10всв339472 0.1 101171
05:00+10всв339212 0.0 101263
08:00+12в23823 0.1 1014253
11:00+15ююв336873 0.3 10151002
14:00+16ююз217567 1.8 1016786
17:00+17зюз22653 0.8 10171032
20:00+14з2382100 0.9 1018128